Вернуться в каталог

COSMOS 1275 DEB

АктивенPO
NORAD 12722·DEBRIS·🇷🇺 Russia

Запущен Jun 4, 1981 с Plesetsk Cosmodrome

Loading…

Ближайшие Пролёты (ближайшие 24 часа)

TLE

СвежийSource: Space-Track

Эпоха: Sep 13, 2026, 08:13 UTC

1 12722U 81053BP  26256.34279294  .00000505  00000-0  39341-3 0  9995
2 12722  82.9046   5.3675 0062574 324.0666  35.6297 13.89701154271115

Отслеживайте COSMOS 1275 DEB в реальном времени с AllMySat

Download on the App Store